Home > Weather > Churchill > Past weeks

Flag for Canada Past Weather in Churchill, Manitoba, Canada — Yesterday and Last 2 Weeks

Now
52 °F

Passing clouds.


Feels Like: 49 °F
Forecast: 50 / 62 °F
Wind: 8 mph from South

Location: Churchill

Current Time: Aug 28, 2016 at 2:07:20 AM

Latest Report: Aug 28, 2016 at 1:00 AM


Visibility: 15 mi

Pressure: 29.95 "Hg

Humidity: 94%

Dew Point: 50 °F

Location of ChurchillLocation

Past Weather in Churchill — Graph

°F

Churchill Temperature Yesterday

Maximum temperature yesterday: 66 °F (at 2:00 PM)
Minimum temperature yesterday: 43 °F (at 3:00 AM)
Average temperature yesterday: 55 °F

High & Low Weather Summary for the Past Weeks

 TemperatureHumidityPressure
High73 °F (Aug 13, 4:00 PM)100% (Aug 14, 5:00 AM)30.01 "Hg (Aug 14, 5:00 AM)
Low43 °F (Aug 27, 3:00 AM)36% (Aug 13, 2:00 PM)29.52 "Hg (Aug 18, 12:00 PM)
Average54 °F82%29.83 "Hg
* Reported Aug 13 1:00 AM — Aug 28 1:00 AM, Churchill, Weather by CustomWeather, © 2016

Note: Actual official high and low records may vary slightly from our data, if they occured in-between our weather recording intervals... More about our weather records

Advertising

Churchill Weather History for the Previous 24 Hours

Scroll right to see more
 ConditionsComfort  
Time TempWeatherWind HumidityBarometerVisibility
1:00 AM
Sun, Aug 28
52 °FPassing clouds.8 mph94%29.95 "Hg15 mi
12:00 AM52 °FPartly cloudy.10 mph94%29.94 "Hg15 mi
11:00 PM
Sat, Aug 27
52 °FPassing clouds.9 mph94%29.93 "Hg15 mi
10:00 PM54 °FPassing clouds.9 mph88%29.92 "Hg15 mi
9:00 PM55 °FPartly sunny.9 mph88%29.91 "Hg15 mi
8:00 PM59 °FBroken clouds.10 mph77%29.89 "Hg15 mi
7:00 PM64 °FOvercast.9 mph64%29.88 "Hg15 mi
6:00 PM66 °FPartly sunny.12 mph56%29.87 "Hg15 mi
5:00 PM66 °FPartly sunny.12 mph52%29.87 "Hg15 mi
4:00 PM66 °FPartly sunny.10 mph49%29.87 "Hg15 mi
3:00 PM66 °FPartly sunny.13 mph52%29.86 "Hg15 mi
2:00 PM66 °FPartly sunny.13 mph52%29.86 "Hg15 mi
1:00 PM64 °FPartly sunny.15 mph56%29.86 "Hg15 mi
12:00 PM63 °FPartly sunny.13 mph59%29.86 "Hg15 mi
11:00 AM61 °FPassing clouds.13 mph68%29.88 "Hg15 mi
10:00 AM59 °FPassing clouds.10 mph72%29.88 "Hg15 mi
9:00 AM54 °FPassing clouds.8 mph82%29.90 "Hg15 mi
8:00 AM50 °FPassing clouds.9 mph88%29.89 "Hg15 mi
7:00 AM45 °FPassing clouds.9 mph100%29.88 "Hg15 mi
6:00 AM43 °FPassing clouds.9 mph100%29.88 "Hg15 mi
5:00 AM43 °FPassing clouds.9 mph100%29.88 "Hg15 mi
4:00 AM43 °FPassing clouds.9 mph100%29.88 "Hg15 mi
3:00 AM43 °FClear.8 mph100%29.88 "Hg15 mi
2:00 AM45 °FClear.9 mph93%29.89 "Hg15 mi
Weather by CustomWeather, © 2016

See weather overviewHow to use our weather pages